Location: Heidgraben
(53.7081°N, 9.6576°E)
Time: 07:11:46
(UTC+00:00)

Cosmos 2322 Rocket - Pass Details

Date: 05 July 2020
Orbit: 832 x 851 km, 71.0° (Epoch: 15 August)

Event Time Altitude Azimuth Distance (km) Brightness Sun altitude
Rises 21:39:39 0° 249° (WSW) 3,375 5.4 -10.2°
Reaches altitude 10° 21:42:23 10° 260° (W) 2,445 4.8 -10.4°
Maximum altitude 21:47:18 31° 321° (NW) 1,446 4.3 -10.7°
Drops below altitude 10° 21:52:16 10° 23° (NNE) 2,462 5.3 -11.0°
Sets 21:55:01 0° 34° (NNE) 3,402 5.9 -11.1°
